Track EXPLORER 30 now! 10-day predictions EXPLORER 30 is classified as:
1 01738U 65093A 21027.88993329 -.00000092 00000-0 18645-4 0 9995 2 01738 59.7081 84.0932 0138058 39.9554 321.1544 14.40243215873090